Location: Newark
(36.2350°N, 59.6408°E)
Time: 18:47:43
(UTC+00:00)

ISS - Visible Passes

Search period start: 19 November 2019 00:00
Search period end: 29 November 2019 00:00
Orbit: 412 x 421 km, 51.6° (Epoch: 19 November)

Date Brightness Start Highest point End Pass type
(mag) Time Alt. Az. Time Alt. Az. Time Alt. Az.
19 Nov -1.0 15:08:25 10° SW 15:09:16 17° SW 15:09:16 17° SW visible
20 Nov -3.4 14:20:14 10° SSW 14:23:20 46° SE 14:23:20 46° SE visible
21 Nov -2.4 13:32:25 10° S 13:35:11 24° SE 13:37:19 14° E visible
21 Nov -1.1 15:08:50 10° W 15:10:14 20° W 15:10:14 20° W visible
22 Nov -3.2 14:20:06 10° WSW 14:23:22 51° NW 14:24:07 41° N visible
23 Nov -3.8 13:31:37 10° SW 13:34:57 84° SE 13:37:54 13° NE visible
23 Nov -0.7 15:10:08 10° WNW 15:10:49 12° NW 15:10:49 12° NW visible
24 Nov -1.7 14:20:51 10° W 14:23:28 21° NNW 14:24:30 18° N visible
25 Nov -2.3 13:31:52 10° W 13:34:54 32° NW 13:37:58 10° NNE visible
26 Nov -1.1 14:22:44 10° NW 14:23:45 11° NNW 14:24:35 10° N visible
27 Nov -1.3 13:33:00 10° WNW 13:35:03 15° NNW 13:37:06 10° NNE visible
